, AK

(GMT )
Anchorage

Weather History for PANC - August, 2013

Change the Weather History Date:

Friday, August 2, 2013

  Actual Average Record
Temperature  
Mean Temperature 64 °F 59 °F  
Max Temperature 70 °F 65 °F 82 °F (1978)
Min Temperature 57 °F 52 °F 44 °F (2009)
Degree Days  
Heating Degree Days 1    
Month to date heating degree days 5  
Since 1 June heating degree days 300  
Since 1 July heating degree days 116  
Cooling Degree Days 0    
Month to date cooling degree days 0  
Year to date cooling degree days 21  
Since 1 June cooling degree days 21  
Growing Degree Days 16 (Base 50)    
Moisture  
Dew Point 51 °F    
Average Humidity 61    
Maximum Humidity 78    
Minimum Humidity 44    
Precipitation  
Precipitation T in 0.09 in 0.53 in (2011)
Month to date precipitation T 0.17  
Year to date precipitation 7.94 6.21  
Snow  
Snow 0.00 in 0.00 in 0.00 in ()
Month to date snowfall 0.0 0.0  
Since 1 June snowfall 0.0 0.0  
Since 1 July snowfall 0.0 0.0  
Snow Depth 0.00 in    
Sea Level Pressure  
Sea Level Pressure 29.93 in    
Wind  
Wind Speed 10 mph (SE)    
Max Wind Speed 18 mph    
Max Gust Speed 31 mph    
Visibility 10 miles    
Events Rain    
T = Trace of Precipitation, MM = Missing Value Source: NWS Daily Summary

Daily Weather History Graph

Daily Weather History Graph

Search for Another Location

Airport or City:

Astronomy

Aug. 02, 2013 Rise Set
Actual Time 5:36 AM AKDT 10:34 PM AKDT
Civil Twilight 4:31 AM AKDT 11:37 PM AKDT
Nautical Twilight 2:38 AM AKDT 1:33 AM AKDT
Astronomical Twilight Sun does not set Sun does not set
Moon 1:51 AM AKDT (8/2) 7:52 PM AKDT (8/2)
Length of Visible Light 19h 05m
Length of Day
16h 58m
Waning Crescent, 15% of the Moon is Illuminated
Aug 2
Waning Crescent
Aug 6
New
Aug 14
First Quarter
Aug 20
Full
Aug 28
Last Quarter

Hourly Weather History & Observations

Time (AKDT) Temp. Dew Point Humidity Pressure Visibility Wind Dir Wind Speed Gust Speed Precip Events Conditions
12:53 AM 63.0 °F 50.0 °F 63% 29.96 in 10.0 mi SSE 17.3 mph 27.6 mph N/A   Mostly Cloudy
1:53 AM 62.1 °F 50.0 °F 65% 29.98 in 10.0 mi SE 17.3 mph 25.3 mph N/A   Scattered Clouds
2:53 AM 62.1 °F 51.1 °F 67% 29.99 in 10.0 mi SSE 12.7 mph 21.9 mph N/A   Scattered Clouds
3:53 AM 62.1 °F 52.0 °F 70% 29.98 in 10.0 mi South 11.5 mph - N/A   Scattered Clouds
4:53 AM 60.1 °F 52.0 °F 75% 29.99 in 10.0 mi SW 8.1 mph - 0.00 in Rain Light Rain
5:53 AM 61.0 °F 52.0 °F 72% 29.99 in 10.0 mi South 4.6 mph 17.3 mph 0.00 in Rain Light Rain
6:53 AM 60.1 °F 53.1 °F 78% 29.99 in 10.0 mi SE 3.5 mph - 0.00 in Rain Light Rain
7:53 AM 60.1 °F 54.0 °F 80% 29.99 in 10.0 mi ENE 6.9 mph - 0.00 in   Mostly Cloudy
8:53 AM 62.1 °F 54.0 °F 75% 29.98 in 10.0 mi NE 8.1 mph - N/A   Mostly Cloudy
9:53 AM 63.0 °F 54.0 °F 72% 29.98 in 10.0 mi NNE 6.9 mph - N/A   Mostly Cloudy
10:33 AM 64.4 °F 53.6 °F 68% 29.97 in 10.0 mi NE 8.1 mph - N/A   Overcast
10:53 AM 64.0 °F 53.1 °F 67% 29.97 in 10.0 mi NNE 6.9 mph - N/A   Overcast
11:53 AM 66.9 °F 54.0 °F 63% 29.97 in 10.0 mi NE 5.8 mph - N/A   Mostly Cloudy
12:53 PM 68.0 °F 50.0 °F 52% 29.96 in 10.0 mi East 10.4 mph 16.1 mph N/A   Mostly Cloudy
1:53 PM 71.1 °F 48.9 °F 45% 29.94 in 10.0 mi SE 18.4 mph 29.9 mph N/A   Mostly Cloudy
2:53 PM 68.0 °F 48.0 °F 49% 29.92 in 10.0 mi SE 18.4 mph 33.4 mph N/A   Mostly Cloudy
3:53 PM 70.0 °F 50.0 °F 49% 29.90 in 10.0 mi SE 17.3 mph 26.5 mph N/A   Mostly Cloudy
4:53 PM 69.1 °F 50.0 °F 51% 29.89 in 10.0 mi SE 18.4 mph 31.1 mph N/A   Mostly Cloudy
5:53 PM 66.0 °F 50.0 °F 56% 29.88 in 10.0 mi SSE 18.4 mph 31.1 mph N/A   Overcast
6:53 PM 64.9 °F 50.0 °F 58% 29.85 in 10.0 mi SSE 17.3 mph 26.5 mph N/A   Overcast
7:53 PM 64.0 °F 51.1 °F 63% 29.85 in 10.0 mi SSE 19.6 mph 26.5 mph N/A   Overcast
8:53 PM 64.0 °F 50.0 °F 60% 29.83 in 10.0 mi SSE 15.0 mph 24.2 mph N/A   Overcast
9:53 PM 64.0 °F 48.9 °F 58% 29.82 in 10.0 mi SSE 13.8 mph 21.9 mph N/A   Mostly Cloudy
10:53 PM 64.0 °F 48.0 °F 56% 29.80 in 10.0 mi SE 10.4 mph - N/A   Overcast
11:53 PM 63.0 °F 48.9 °F 60% 29.80 in 10.0 mi SSE 12.7 mph 25.3 mph N/A   Overcast